Погода в Северном

Россия / Амурская область     49°26′59″N   129°33′23″E
темп.,
°C
ветер,
м/с
пор.,
м/с
влажн.,
%
обл.,
%
осадки,
мм/ч
давл.,
гПа
погр.,
м
7 мая, пт
пт700:00+8зсз116853 0.0 100213
03:00+6сз117362 0.0 100110
06:00+7с2274100 0.0 100141
09:00+11всв3456100 0.0 1000796
12:00+14всв4545100 0.0 9971852
15:00+13всв4549100 0.1 9951427
18:00+10ююв3381100 0.6 995237
21:00+9в3983100 1.0 994544
8 мая, сб
сб800:00+8св3888100 0.6 994804
03:00+7св6886100 1.9 9941060
06:00+5всв5991100 0.3 995785
09:00+6всв5783100 0.6 995716
12:00+8св5672100 0.1 9961070
15:00+6св4489100 0.8 996783
18:00+6в2391100 3.3 997363
21:00+5св3493100 4.1 998680
9 мая, вс
вс900:00+5св4794100 0.7 997617
03:00+4ссв5894100 1.8 997703
06:00+4ссв51096100 2.1 998708
09:00+3св5996100 6.1 999576
12:00+4св4795100 1.6 1000652
15:00+5св3593100 2.9 1002704
18:00+5ссв2290100 0.5 1003358
21:00+5ссз1193100 0.7 100524
10 мая, пн
пн1000:00+5сз1293100 0.0 100649
03:00+5сз1193100 0.1 100738
06:00+5з1293100 0.0 100851
09:00+6зюз2390100 0.1 1010268
12:00+7зюз2387100 0.0 1011415
15:00+8юз1281100 0.1 1011444
18:00+8юз2383100 0.1 1012343
21:00+6з129098 0.1 101328
11 мая, вт
вт1100:00+5з1193100 0.0 101410
03:00+5з0193100 0.0 101410
06:00+6ююв0191100 0.0 101560
09:00+10юв337575 0.0 1015773
12:00+11юв556796 0.3 10141116
15:00+12юв5564100 0.3 10131207
18:00+10вюв5772100 0.0 1014653
21:00+7юв6129015 0.0 1014480